Change the Weather History Date:

Saturday, February 2, 2013

  Actual Average (KABE) Record (KABE)
Temperature  
Mean Temperature 19 °F 28 °F  
Max Temperature 24 °F 37 °F 58 °F (1983)
Min Temperature 14 °F 20 °F -7 °F (1961)
Degree Days  
Heating Degree Days 46 37  
Month to date heating degree days 74  
Since 1 July heating degree days 3424  
Cooling Degree Days 0 0  
Month to date cooling degree days 0  
Year to date cooling degree days 0  
Moisture  
Dew Point 10 °F    
Average Humidity 66    
Maximum Humidity 93    
Minimum Humidity 43    
Precipitation  
Precipitation 0.03 in 0.11 in 1.22 in (1973)
Month to date precipitation 0.21  
Year to date precipitation 3.24  
Snow  
Snow 0.00 in 0.40 in 6.00 in (1916)
Month to date snowfall 0.8  
Since 1 July snowfall 16.7  
Snow Depth -    
Sea Level Pressure  
Sea Level Pressure 30.20 in    
Wind  
Wind Speed 6 mph (WSW)    
Max Wind Speed 13 mph    
Max Gust Speed 17 mph    
Visibility 7 miles    
Events Snow    
T = Trace of Precipitation, MM = Missing Value Source: NWS Daily Summary

Daily Weather History Graph

Daily Weather History Graph

Search for Another Location

Airport or City:

Trip Planner

Search our weather history database for the weather conditions in past years. The results will help you decide how hot, cold, wet, or windy it might be!

Date:

Astronomy

Feb. 02, 2013 Rise Set
Actual Time 7:10 AM EST 5:21 PM EST
Civil Twilight 6:41 AM EST 5:50 PM EST
Nautical Twilight 6:09 AM EST 6:22 PM EST
Astronomical Twilight 5:37 AM EST 6:54 PM EST
Moon No Moon Rise 10:17 AM EST (2/2)
Length of Visible Light 11h 08m
Length of Day
10h 11m
Waning Gibbous, 60% of the Moon is Illuminated
Feb 2
Waning Gibbous
Feb 3
Last Quarter
Feb 10
New
Feb 17
First Quarter
Feb 25
Full

Hourly Weather History & Observations

Time (EST) Temp. Windchill Dew Point Humidity Pressure Visibility Wind Dir Wind Speed Gust Speed Precip Events Conditions
12:15 AM 19.4 °F 10.4 °F 5.0 °F 54% 30.28 in 10.0 mi SW 6.9 mph - N/A   Clear
12:35 AM 19.4 °F 9.5 °F 3.2 °F 49% 30.28 in 10.0 mi West 8.1 mph - N/A   Clear
12:55 AM 19.4 °F 9.5 °F 3.2 °F 49% 30.28 in 10.0 mi WSW 8.1 mph - N/A   Clear
1:15 AM 19.4 °F 10.4 °F 3.2 °F 49% 30.28 in 10.0 mi WSW 6.9 mph - N/A   Clear
1:35 AM 19.4 °F 12.8 °F 3.2 °F 49% 30.29 in 10.0 mi WSW 4.6 mph - N/A   Clear
1:55 AM 19.4 °F 11.5 °F 5.0 °F 54% 30.29 in 10.0 mi WSW 5.8 mph - N/A   Clear
2:15 AM 19.4 °F 10.4 °F 5.0 °F 54% 30.30 in 10.0 mi West 6.9 mph - N/A   Clear
2:35 AM 19.4 °F 10.4 °F 5.0 °F 54% 30.31 in 10.0 mi WSW 6.9 mph - N/A   Clear
2:55 AM 19.4 °F 11.5 °F 5.0 °F 54% 30.31 in 10.0 mi WSW 5.8 mph - N/A   Clear
3:15 AM 17.6 °F 8.2 °F 5.0 °F 58% 30.30 in 10.0 mi WSW 6.9 mph - N/A   Clear
3:35 AM 17.6 °F 8.2 °F 5.0 °F 58% 30.30 in 10.0 mi West 6.9 mph - N/A   Clear
3:55 AM 17.6 °F 10.7 °F 5.0 °F 58% 30.30 in 10.0 mi WSW 4.6 mph - N/A   Clear
4:15 AM 17.6 °F 9.3 °F 5.0 °F 58% 30.30 in 10.0 mi West 5.8 mph - N/A   Clear
4:35 AM 17.6 °F 10.7 °F 3.2 °F 53% 30.30 in 10.0 mi West 4.6 mph - N/A   Clear
4:55 AM 17.6 °F 10.7 °F 3.2 °F 53% 30.29 in 10.0 mi SW 4.6 mph - N/A   Clear
5:15 AM 15.8 °F - 3.2 °F 58% 30.29 in 10.0 mi Calm Calm - N/A   Clear
5:35 AM 15.8 °F 10.2 °F 3.2 °F 58% 30.29 in 10.0 mi West 3.5 mph - N/A   Clear
5:55 AM 15.8 °F 10.2 °F 3.2 °F 58% 30.29 in 10.0 mi WSW 3.5 mph - N/A   Clear
6:15 AM 15.8 °F 8.6 °F 3.2 °F 58% 30.29 in 10.0 mi SW 4.6 mph - N/A   Clear
6:35 AM 15.8 °F 10.2 °F 3.2 °F 58% 30.29 in 10.0 mi WSW 3.5 mph - N/A   Clear
6:55 AM 14.0 °F 8.2 °F 3.2 °F 62% 30.30 in 10.0 mi SW 3.5 mph - N/A   Clear
7:15 AM 14.0 °F 8.2 °F 3.2 °F 62% 30.30 in 10.0 mi South 3.5 mph - N/A   Clear
7:35 AM 15.8 °F 7.2 °F 5.0 °F 62% 30.30 in 10.0 mi SSW 5.8 mph - N/A   Clear
7:55 AM 17.6 °F 12.3 °F 5.0 °F 58% 30.31 in 10.0 mi WSW 3.5 mph - N/A   Clear
8:15 AM 17.6 °F 12.3 °F 5.0 °F 58% 30.30 in 10.0 mi SW 3.5 mph - N/A   Clear
8:35 AM 19.4 °F 12.8 °F 5.0 °F 54% 30.30 in 10.0 mi WSW 4.6 mph - N/A   Clear
8:55 AM 19.4 °F 11.5 °F 5.0 °F 54% 30.29 in 10.0 mi West 5.8 mph - N/A   Clear
9:15 AM 19.4 °F 9.5 °F 5.0 °F 54% 30.28 in 10.0 mi West 8.1 mph 16.1 mph N/A   Clear
9:35 AM 21.2 °F 10.9 °F 5.0 °F 50% 30.27 in 10.0 mi WSW 9.2 mph - N/A   Clear
9:55 AM 21.2 °F 14.9 °F 5.0 °F 50% 30.27 in 10.0 mi West 4.6 mph - N/A   Clear
10:15 AM 21.2 °F 10.9 °F 5.0 °F 50% 30.27 in 10.0 mi West 9.2 mph 17.3 mph N/A   Scattered Clouds
10:35 AM 21.2 °F 8.9 °F 5.0 °F 50% 30.27 in 10.0 mi West 12.7 mph 16.1 mph N/A   Mostly Cloudy
10:55 AM 23.0 °F 13.1 °F 5.0 °F 46% 30.26 in 10.0 mi West 9.2 mph - N/A   Scattered Clouds
11:15 AM 23.0 °F 11.7 °F 5.0 °F 46% 30.25 in 10.0 mi WSW 11.5 mph - N/A   Clear
11:35 AM 23.0 °F 11.7 °F 5.0 °F 46% 30.24 in 10.0 mi SW 11.5 mph - N/A   Scattered Clouds
11:55 AM 23.0 °F 11.7 °F 5.0 °F 46% 30.22 in 10.0 mi SW 11.5 mph - N/A   Scattered Clouds
12:15 PM 23.0 °F 12.4 °F 5.0 °F 46% 30.22 in 10.0 mi SW 10.4 mph - N/A   Mostly Cloudy
12:35 PM 23.0 °F 13.1 °F 5.0 °F 46% 30.21 in 10.0 mi WSW 9.2 mph - N/A   Overcast
12:55 PM 24.8 °F 14.0 °F 5.0 °F 43% 30.19 in 10.0 mi SW 11.5 mph 17.3 mph N/A   Mostly Cloudy
1:15 PM 24.8 °F 15.3 °F 5.0 °F 43% 30.18 in 10.0 mi SW 9.2 mph 16.1 mph N/A   Scattered Clouds
1:35 PM 23.0 °F 13.9 °F 5.0 °F 46% 30.17 in 10.0 mi SW 8.1 mph - N/A   Mostly Cloudy
1:55 PM 23.0 °F 11.1 °F 6.8 °F 50% 30.16 in 10.0 mi SW 12.7 mph - N/A   Scattered Clouds
2:15 PM 23.0 °F 13.9 °F 8.6 °F 54% 30.15 in 10.0 mi SSW 8.1 mph - N/A   Clear
2:35 PM 23.0 °F 11.7 °F 10.4 °F 59% 30.14 in 10.0 mi SSW 11.5 mph - N/A   Scattered Clouds
2:55 PM 23.0 °F 12.4 °F 12.2 °F 63% 30.15 in 10.0 mi SW 10.4 mph - N/A   Scattered Clouds
3:15 PM 23.0 °F 12.4 °F 12.2 °F 63% 30.14 in 5.0 mi SW 10.4 mph - N/A Snow Light Snow
3:35 PM 23.0 °F 13.1 °F 14.0 °F 68% 30.13 in 3.0 mi SW 9.2 mph - N/A Snow Light Snow
3:55 PM 23.0 °F 13.9 °F 14.0 °F 68% 30.12 in 2.5 mi SW 8.1 mph - N/A Snow Light Snow
4:15 PM 21.2 °F 13.6 °F 17.6 °F 86% 30.12 in 1.8 mi WSW 5.8 mph - N/A Snow Light Snow
4:35 PM 21.2 °F 13.6 °F 17.6 °F 86% 30.12 in 1.2 mi SW 5.8 mph - N/A Snow Light Snow
4:55 PM 21.2 °F - 17.6 °F 86% 30.11 in 1.2 mi Calm Calm - N/A Snow Light Snow
5:15 PM 21.2 °F - 17.6 °F 86% 30.10 in 1.2 mi Calm Calm - N/A Snow Light Snow
5:35 PM 21.2 °F - 17.6 °F 86% 30.10 in 2.5 mi Calm Calm - N/A Snow Light Snow
5:55 PM 21.2 °F - 19.4 °F 93% 30.09 in 2.5 mi Calm Calm - N/A Snow Light Snow
6:35 PM 21.2 °F - 19.4 °F 93% 30.09 in 2.5 mi Calm Calm - N/A Snow Light Snow
6:55 PM 21.2 °F - 19.4 °F 93% 30.09 in 2.0 mi Calm Calm - N/A Snow Light Snow
7:15 PM 21.2 °F - 19.4 °F 93% 30.09 in 3.0 mi Calm Calm - N/A Snow Light Snow
7:35 PM 21.2 °F - 19.4 °F 93% 30.09 in 2.5 mi Calm Calm - N/A Snow Light Snow
7:55 PM 21.2 °F - 19.4 °F 93% 30.09 in 2.0 mi Calm Calm - N/A Snow Light Snow
8:15 PM 23.0 °F - 19.4 °F 86% 30.09 in 1.8 mi Calm Calm - N/A Snow Light Snow
8:35 PM 23.0 °F - 19.4 °F 86% 30.09 in 1.8 mi Calm Calm - N/A Snow Light Snow
8:55 PM 23.0 °F - 19.4 °F 86% 30.08 in 1.0 mi Calm Calm - 0.01 in Snow Snow
9:15 PM 23.0 °F - 21.2 °F 93% 30.08 in 0.8 mi Calm Calm - N/A Snow Snow
9:35 PM 23.0 °F - 21.2 °F 93% 30.07 in 1.2 mi Calm Calm - N/A Snow Light Snow
9:55 PM 23.0 °F - 21.2 °F 93% 30.07 in 1.8 mi Calm Calm - 0.01 in Snow Light Snow
10:15 PM 23.0 °F - 19.4 °F 86% 30.06 in 3.0 mi Calm Calm - N/A Snow Light Snow
10:35 PM 23.0 °F - 19.4 °F 86% 30.05 in 1.8 mi Calm Calm - N/A Snow Light Snow
10:55 PM 23.0 °F - 21.2 °F 93% 30.04 in 2.0 mi Calm Calm - N/A Snow Light Snow
11:15 PM 23.0 °F - 21.2 °F 93% 30.04 in 1.5 mi Calm Calm - N/A Snow Light Snow
11:35 PM 23.0 °F - 21.2 °F 93% 30.04 in 1.5 mi Calm Calm - 0.01 in Snow Light Snow
11:55 PM 23.0 °F - 21.2 °F 93% 30.03 in 4.0 mi Calm Calm - 0.01 in Snow Light Snow